Find Starlink 36898

NORAD ID: 68002 Int'l Des: 2026-039 Owner: SPXS Country: US Constellation: starlink operational
LEOCIRCULAR

实时位置

正在加载3D地球...

关于 Starlink 36898

正在加载描述...

即将过境

Passes for default location (London). Set your location on the main map for personalized predictions.

高度历史

Loading altitude history...

两行轨道根数

1 68002U 26039S 26105.52638419 -.00001801 00000-0 -55930-4 0 9996
2 68002 43.0011 201.1891 0002107 263.3806 96.6806 15.27570097 7338
Epoch: Apr 15, 2026 • Age: 23 hours

当前状态

高度 487.5 km
速度 7.62 km/s
星下点 -22.51°S, 24.37°E
发射日期 Feb 27, 2026
运行时间 0.1 years
类型 internet

技术详情

分类 Payload
质量 575.00 kg
干质量 530.00 kg
总质量 575.00 kg
长度 0.30 m
直径 4.10 m
跨度 29.00 m
形状 Box + pan
制造商 SPXS
平台类型 Starlink V2MO
阶段状态 In Orbit
所有者/国家 SPXS/US

Most Searched